ONEWEB-0038 (45145 NORAD) Tracking and Keplerian Element Data

This shows tracking and keplerian element data for the satellite.

Feedback or suggestion? Click here.




ElementValue
Catalog45145
NameONEWEB-0038
Epoch Orbit3922
Epoch Day297.91667824
Epoch Year2020
RAAN81.6617
Inclination87.447
Eccentricity0.0023624
Argument of Perigee103.1549
Mean Anonmoly2.1287
Mean Motion14.68817631
Decay Rate-4.825E-05
L11 45145U 20008Q 20297.91667824 -.00004825 00000-0 -82892-3 0 9995
L22 45145 87.4470 81.6617 0023624 103.1549 2.1287 14.68817631 39221

Live tracking and technical data element details for ONEWEB-0038 (NORAD 45145). ONEWEB-0038 can be tracked NOW for your location showing map with azimuth and elevation plus other details from your city location.

Track the satellite on the map from your city or location and see movement details for azimuth, elevation, latitude, longitude, range, height, and movement on the map or in text.







IsCatalogInMostPopularTable: catalog: 45145, numindb: 56
Update: records affected: 1



GetName: 45145 ONEWEB-0038

Hit Count: updated at: Sat, 24 Oct 2020 23:48:06 GMT